[[{"header":{"parameterUnit":"m.s-1","parameterCategory":1,"la1":30.2991,"la2":30.254,"lo1":-89.0895,"lo2":-89.0444,"dy":0.0017,"dx":0.0017,"nx":28,"ny":28,"refTime":"2024-06-28T03:00:00:Z","depth":0,"parameterNumber":2,"parameterNumberName":"U-component_of_WINDS"},"data":[0,0,0,0,0,0,0,0,0,0,0,0,0,0,0,0,0,0,0,0,0,0,0,0,0,0,0,0,0,0,0,0,0,0,0,0,0,0,0,0,0,0,0,0,0,0,0,0,0,0,0,0,0,0,0,0,0,0,2.5284,2.5284,0,2.5297,2.5297,2.5297,2.5243,2.5241,2.5239,2.5238,2.5248,2.525,2.5252,0,0,0,0,0,0,0,0,0,0,0,0,0,2.521,2.5212,2.5284,2.5284,2.5284,2.5297,2.5297,2.5297,2.5243,2.5241,2.5239,2.5237,2.5248,2.525,2.5252,0,0,0,0,0,0,0,0,0,0,0,0,0,2.5235,2.5213,2.5284,2.5259,2.5257,2.5297,2.5297,2.5297,2.5243,2.5241,2.5239,2.5236,2.5247,2.525,2.5252,2.5316,0,0,2.526,2.5261,0,0,0,0,0,0,0,0,2.5233,2.5237,2.5263,2.5261,2.5258,2.5266,2.5275,2.5303,2.5244,2.5248,2.5238,2.5235,2.5256,2.5258,2.5265,2.5317,2.5317,2.526,2.5262,2.5263,2.5264,0,0,0,0,0,0,0,2.5232,2.5237,2.5289,2.5263,2.526,2.5246,2.5247,2.528,2.5265,2.5248,2.5244,2.5246,2.5254,2.5263,2.5265,2.5317,2.526,2.5263,2.5264,2.5265,2.5421,2.5423,0,0,0,0,0,0,2.5234,2.5236,2.5289,2.5289,2.524,2.525,2.525,2.5266,2.5265,2.5262,2.5248,2.5244,2.5259,2.5262,2.5265,2.5339,2.5263,2.5266,2.5267,2.5419,2.5422,2.5424,0,0,0,0,0,0,2.5232,2.5239,2.5288,2.5261,2.5267,2.5253,2.5271,2.5267,2.5276,2.5265,2.5262,2.526,2.5258,2.5261,2.5304,2.5339,2.5267,2.5269,2.5416,2.5419,2.5423,2.5488,0,0,0,0,0,0,2.5231,2.5239,2.5263,2.5262,2.5268,2.5328,2.5273,2.5269,2.5281,2.5275,2.5275,2.5273,2.5256,2.53,2.5307,2.5341,2.5271,2.5412,2.5417,2.5422,2.5483,2.5494,2.5503,0,0,0,0,0,2.5228,2.5281,2.5265,2.5272,2.5299,2.533,2.5333,2.5313,2.5284,2.5308,2.5301,2.5273,2.5334,2.5305,2.5312,2.5348,2.541,2.5416,2.5421,2.5478,2.5492,2.5503,0,0,0,0,0,0,2.5285,2.528,2.5263,2.5317,2.5324,2.532,2.535,2.5328,2.5343,2.5337,2.5311,2.5312,2.5358,2.5357,2.5325,2.5409,2.5367,2.5374,2.5408,2.5421,2.5431,2.5429,2.5273,0,0,0,0,0,2.5304,2.533,2.5324,2.5373,2.5378,2.5364,2.5376,2.5361,2.5367,2.5369,2.5366,2.5372,2.5393,2.5407,2.5425,2.5483,2.5482,2.5511,2.5521,2.553,2.5536,2.5566,2.5578,2.5443,2.5443,2.5443,0,0,2.5343,2.5344,2.5362,2.5384,2.5388,2.5415,2.5366,2.5397,2.5416,2.5374,2.5413,2.5411,2.5417,2.5467,2.5489,2.5467,2.5573,2.5537,2.5544,2.5545,2.5573,2.5586,2.5597,2.5447,2.5446,2.5446,0,0,2.5428,2.5432,2.5472,2.5478,2.5485,2.5475,2.5485,2.5485,2.5482,2.5522,2.5491,2.5513,2.555,2.5555,2.5562,2.565,2.5624,2.5657,2.5709,2.5739,2.5749,2.5759,2.5789,2.58,2.5663,2.5664,2.5664,0,2.5475,2.5516,2.5496,2.5529,2.5539,2.5503,2.5543,2.5549,2.5562,2.5569,2.5545,2.559,2.5592,2.5642,2.5664,2.5672,2.5681,2.5656,2.575,2.5759,2.5767,2.5796,2.5807,2.5667,2.5667,2.5666,2.5666,0,2.5573,2.5601,2.5633,2.5647,2.5661,2.5698,2.5683,2.5699,2.5683,2.5676,2.5717,2.5717,2.5735,2.5746,2.573,2.5795,2.5781,2.5754,2.5711,2.5784,2.5811,2.5822,2.5673,2.5671,2.567,2.5669,0,0,2.5692,2.5696,2.5708,2.5714,2.5719,2.574,2.5775,2.5794,2.5808,2.5818,2.5846,2.5878,2.5853,2.5862,2.5846,2.5872,2.5941,2.5842,2.5841,2.5859,2.6011,2.6031,2.6044,2.5925,2.5927,2.5928,2.601,0,2.5775,2.5835,2.5818,2.5878,2.5904,2.5871,2.5901,2.5907,2.5902,2.5922,2.5916,2.5939,2.5904,2.5909,2.5934,2.5927,2.5971,2.5921,2.5949,2.595,2.5947,2.6058,2.6078,2.6156,2.6021,2.6023,2.6024,0,2.5878,2.5894,2.5956,2.5958,2.5968,2.5996,2.6011,2.6032,2.6038,2.6032,2.6043,2.6022,2.6055,2.6013,2.6058,2.6025,2.6035,2.6034,2.6037,2.6037,2.599,2.606,2.618,2.6192,2.604,2.6039,2.6038,0,2.5958,2.5994,2.6036,2.6043,2.6046,2.6066,2.6068,2.6072,2.6085,2.6098,2.6106,2.6123,2.6132,2.6146,2.613,2.6101,2.6177,2.6134,2.6172,2.6173,2.6188,2.6187,2.631,2.6197,2.6197,2.6197,2.6197,0,2.6051,2.609,2.6072,2.6098,2.6141,2.6122,2.6164,2.6163,2.6167,2.6191,2.6164,2.6187,2.6165,2.6186,2.6174,2.6213,2.6217,2.6213,2.6209,2.6215,2.6215,2.622,2.6214,2.62,2.6199,2.6199,2.6198,0,2.6146,2.6136,2.6179,2.618,2.6181,2.6212,2.6212,2.6235,2.6228,2.6259,2.6266,2.6255,2.6278,2.6264,2.6288,2.6279,2.633,2.6319,2.6328,2.6324,2.6363,2.6359,2.6493,2.6509,2.6387,2.6388,2.6389,0,2.6205,2.6235,2.6239,2.6254,2.6258,2.6282,2.6295,2.6277,2.6291,2.6302,2.6324,2.6345,2.6361,2.64,2.6393,2.6411,2.64,2.6446,2.6402,2.6407,2.6399,2.6397,2.64,2.6454,2.6455,2.6456,2.6457,0,2.6311,2.6305,2.6325,2.6344,2.636,2.6373,2.6384,2.6398,2.638,2.6398,2.6422,2.6434,2.6459,2.648,2.6496,2.6497,2.6474,2.6471,2.6481,2.6486,2.649,2.6488,2.635,2.6468,2.6467,2.6466,2.6465,2.6465,2.6389,2.6414,2.6421,2.6444,2.6451,2.6462,2.6484,2.6481,2.6501,2.6521,2.6509,2.6537,2.6543,2.6561,2.6566,2.6587,2.6568,2.6583,2.6586,2.6589,2.6594,2.6488,2.659,2.6589,2.6589,2.6589,2.6589,0,2.6493,2.6496,2.6518,2.6535,2.6553,2.6532,2.6543,2.6559,2.6585,2.6593,2.661,2.6637,2.6658,2.6654,2.6673,2.669,2.668,2.6696,2.6694,2.6694,2.661,2.66,2.6704,2.6704,2.6704,2.6704,2.6703,2.6703,2.6549,2.659,2.6584,2.6628,2.6631,2.6659,2.6667,2.6677,2.6684,2.6716,2.6734,2.6731,2.6734,2.6753,2.6771,2.6769,2.6777,2.6796,2.679,2.6711,2.67,2.6689,2.6679,2.6798,2.6798,2.6872,2.6872,2.6873]},{"header":{"parameterUnit":"m.s-1","parameterCategory":1,"la1":30.2991,"la2":30.254,"lo1":-89.0895,"lo2":-89.0444,"dy":0.0017,"dx":0.0017,"nx":28,"ny":28,"refTime":"2024-06-28T03:00:00:Z","depth":0,"parameterNumber":3,"parameterNumberName":"V-component_of_WINDS"},"data":[0,0,0,0,0,0,0,0,0,0,0,0,0,0,0,0,0,0,0,0,0,0,0,0,0,0,0,0,0,0,0,0,0,0,0,0,0,0,0,0,0,0,0,0,0,0,0,0,0,0,0,0,0,0,0,0,0,0,4.5999,4.6003,0,4.6442,4.6447,4.6452,4.6474,4.6469,4.6464,4.6459,4.6919,4.6935,4.6952,0,0,0,0,0,0,0,0,0,0,0,0,0,4.5168,4.5183,4.5998,4.6004,4.6009,4.6441,4.6447,4.6453,4.6475,4.6469,4.6463,4.6457,4.6913,4.6933,4.6954,0,0,0,0,0,0,0,0,0,0,0,0,0,4.5562,4.5188,4.5997,4.6072,4.6083,4.644,4.6448,4.6455,4.6477,4.6469,4.6461,4.6454,4.6906,4.6931,4.6956,4.727,0,0,4.7035,4.7046,0,0,0,0,0,0,0,0,4.554,4.5593,4.6055,4.6067,4.6081,4.6395,4.6323,4.6729,4.6479,4.6327,4.6459,4.645,4.6751,4.6789,4.6889,4.7292,4.7312,4.7037,4.7053,4.7064,4.7071,0,0,0,0,0,0,0,4.5513,4.5574,4.6174,4.6062,4.6078,4.6083,4.613,4.64,4.6578,4.634,4.6343,4.6394,4.6756,4.6865,4.69,4.7318,4.7036,4.7059,4.7075,4.7085,4.7992,4.8001,0,0,0,0,0,0,4.547,4.5551,4.616,4.6187,4.5785,4.6104,4.6157,4.6302,4.6575,4.6609,4.6401,4.6394,4.6825,4.687,4.6917,4.7298,4.7063,4.7087,4.7102,4.7984,4.7994,4.8004,0,0,0,0,0,0,4.5452,4.5525,4.6142,4.587,4.5949,4.6127,4.6289,4.6315,4.6423,4.6621,4.6652,4.6479,4.682,4.6881,4.718,4.7314,4.7099,4.7122,4.7973,4.7987,4.7999,4.8065,0,0,0,0,0,0,4.5429,4.5518,4.564,4.5872,4.5963,4.6399,4.6298,4.6329,4.6467,4.6462,4.6702,4.6735,4.6819,4.7142,4.7205,4.7345,4.7142,4.7962,4.7979,4.7995,4.8052,4.8079,4.8102,0,0,0,0,0,4.5399,4.5644,4.5646,4.572,4.612,4.6407,4.6459,4.6549,4.6477,4.6601,4.6726,4.6727,4.7288,4.7172,4.7244,4.7394,4.7954,4.7975,4.7994,4.804,4.8073,4.8101,0,0,0,0,0,0,4.5428,4.5676,4.5682,4.6009,4.6186,4.641,4.6569,4.6582,4.6786,4.6773,4.6877,4.6931,4.7227,4.7341,4.7207,4.7708,4.7613,4.7648,4.7624,4.7657,4.7681,4.7649,4.7163,0,0,0,0,0,4.5471,4.5683,4.5889,4.6158,4.6246,4.6391,4.6521,4.6573,4.6762,4.6838,4.6986,4.7169,4.7386,4.7527,4.7739,4.8066,4.8117,4.8204,4.8229,4.8249,4.8278,4.8454,4.8494,4.8068,4.8068,4.8068,0,0,4.5566,4.5727,4.5856,4.6167,4.6311,4.6527,4.6455,4.6689,4.685,4.6874,4.7165,4.7278,4.7489,4.7802,4.7948,4.7906,4.8406,4.8274,4.8288,4.8308,4.8478,4.8518,4.8554,4.8082,4.8079,4.8077,0,0,4.5847,4.5991,4.6228,4.6371,4.6587,4.6681,4.6737,4.6958,4.7033,4.7325,4.7346,4.7538,4.7911,4.8059,4.8183,4.8508,4.8516,4.8574,4.8706,4.8876,4.891,4.894,4.9053,4.9093,4.8602,4.8603,4.8603,0,4.5938,4.6264,4.6349,4.6581,4.6715,4.6742,4.6981,4.7116,4.7391,4.7483,4.743,4.7893,4.8038,4.8383,4.8461,4.8562,4.8627,4.8549,4.8898,4.8929,4.8958,4.9067,4.911,4.8608,4.8608,4.8607,4.8606,0,4.6362,4.6587,4.6752,4.7011,4.7164,4.7399,4.7518,4.7663,4.7699,4.7798,4.8091,4.8264,4.8507,4.8592,4.8634,4.8942,4.8908,4.8876,4.8783,4.9003,4.9107,4.915,4.8616,4.8614,4.8613,4.8611,0,0,4.6682,4.6978,4.7037,4.7152,4.7388,4.7563,4.7795,4.803,4.815,4.8336,4.8532,4.8842,4.881,4.895,4.9007,4.9156,4.9397,4.9105,4.9111,4.9152,4.9743,4.9765,4.9813,4.9402,4.941,4.9417,4.9724,0,4.6988,4.7401,4.748,4.784,4.8045,4.8069,4.827,4.8435,4.8531,4.8719,4.8825,4.9042,4.8986,4.9069,4.9217,4.9337,4.9518,4.9316,4.9584,4.9593,4.9531,4.9868,4.9896,5.0178,4.9766,4.9773,4.9778,0,4.7403,4.7593,4.7971,4.8171,4.8261,4.8441,4.8658,4.8838,4.9023,4.9082,4.9233,4.927,4.951,4.9402,4.9731,4.9592,4.9705,4.9779,4.9792,4.9822,4.97,4.9906,5.027,5.0312,4.9843,4.9838,4.9833,0,4.7594,4.7945,4.8215,4.8313,4.8555,4.868,4.8786,4.8963,4.9096,4.9286,4.9372,4.9588,4.9706,4.9871,4.9964,4.9877,5.0284,5.0186,5.0339,5.0336,5.0426,5.042,5.0813,5.0499,5.0498,5.0497,5.0496,0,4.7928,4.8158,4.8303,4.847,4.8726,4.8813,4.9064,4.9169,4.9324,4.951,4.9543,4.9716,4.9828,5.0017,5.0091,5.0349,5.0403,5.0456,5.0473,5.0454,5.0447,5.0531,5.0514,5.0508,5.0506,5.0504,5.0502,0,4.8188,4.8295,4.859,4.8791,4.8846,4.9026,4.9198,4.9359,4.945,4.9684,4.9743,4.9889,5.0111,5.0218,5.0496,5.0545,5.0837,5.0842,5.0775,5.0781,5.0927,5.0911,5.1389,5.1455,5.1096,5.11,5.1102,0,4.8395,4.8572,4.8789,4.8913,4.9021,4.9224,4.9357,4.9447,4.9585,4.9803,4.9937,5.0159,5.0343,5.0696,5.0826,5.1036,5.1046,5.1198,5.1078,5.105,5.1046,5.1034,5.1051,5.1221,5.1224,5.1227,5.1229,0,4.875,4.8791,4.8982,4.919,4.9347,4.9516,4.9682,4.9782,4.9897,5.005,5.0275,5.0416,5.0695,5.0915,5.1132,5.1241,5.1255,5.1265,5.1311,5.1294,5.1247,5.1272,5.0833,5.1255,5.1252,5.125,5.1249,5.1248,4.899,4.9145,4.9319,4.9529,4.9661,4.9812,4.9971,5.0079,5.0268,5.0501,5.0541,5.078,5.0953,5.1246,5.136,5.1547,5.1513,5.1581,5.1598,5.1613,5.1619,5.1214,5.1587,5.1587,5.1586,5.1586,5.1585,0,4.9344,4.9455,4.9647,4.9874,5.0037,5.003,5.021,5.0348,5.0556,5.0716,5.0893,5.1148,5.1359,5.1501,5.1714,5.1836,5.1846,5.1888,5.1881,5.1905,5.1639,5.1577,5.1876,5.1876,5.1875,5.1875,5.1875,5.1875,4.9548,4.9809,4.9869,5.0193,5.0303,5.0535,5.0638,5.0776,5.0903,5.1186,5.136,5.1449,5.1601,5.1823,5.2015,5.2051,5.2127,5.217,5.2205,5.1955,5.1924,5.1895,5.1838,5.2186,5.2186,5.2455,5.2458,5.2459]}]]